Time,TemperatureF,DewpointF,PressureIn,WindDirection,WindDirectionDegrees,WindSpeedMPH,WindSpeedGustMPH,Humidity,HourlyPrecipIn,Conditions,Clouds,dailyrainin,SoftwareType,DateUTC
2013-04-21 00:02:00,36.0,34.0,30.12,ESE,110,7.0,-999.0,93,-99.99,,,-99.99,,2013-04-21 05:02:00,
2013-04-21 00:12:00,36.0,34.0,30.12,ESE,110,7.0,-999.0,93,-99.99,,,-99.99,,2013-04-21 05:12:00,
2013-04-21 00:22:00,36.0,34.0,30.12,ESE,110,7.0,-999.0,93,-99.99,,,-99.99,,2013-04-21 05:22:00,
2013-04-21 00:32:00,36.0,32.0,30.11,ESE,110,8.0,-999.0,86,-99.99,,,-99.99,,2013-04-21 05:32:00,
2013-04-21 00:43:00,36.0,32.0,30.11,ESE,110,8.0,-999.0,86,-99.99,,,-99.99,,2013-04-21 05:43:00,
2013-04-21 00:52:00,36.0,32.0,30.11,ESE,110,7.0,-999.0,86,-99.99,,,-99.99,,2013-04-21 05:52:00,
2013-04-21 01:01:00,36.0,32.0,30.11,ESE,110,7.0,-999.0,86,-99.99,,,-99.99,,2013-04-21 06:01:00,
2013-04-21 01:12:00,36.0,32.0,30.11,ESE,110,6.0,-999.0,86,-99.99,,,-99.99,,2013-04-21 06:12:00,
2013-04-21 01:22:00,36.0,32.0,30.11,ESE,110,6.0,-999.0,86,-99.99,,,-99.99,,2013-04-21 06:22:00,
2013-04-21 01:32:00,36.0,32.0,30.11,North,0,0.0,-999.0,86,-99.99,,,-99.99,,2013-04-21 06:32:00,
2013-04-21 01:42:00,36.0,32.0,30.11,North,0,0.0,-999.0,86,-99.99,,,-99.99,,2013-04-21 06:42:00,
2013-04-21 01:51:00,36.0,32.0,30.11,ESE,120,6.0,-999.0,86,-99.99,,,-99.99,,2013-04-21 06:51:00,
2013-04-21 02:01:00,36.0,32.0,30.11,ESE,120,6.0,-999.0,86,-99.99,,,-99.99,,2013-04-21 07:01:00,
2013-04-21 02:11:00,36.0,32.0,30.10,ESE,120,7.0,-999.0,86,-99.99,,,-99.99,,2013-04-21 07:11:00,
2013-04-21 02:21:00,36.0,32.0,30.10,ESE,120,7.0,-999.0,86,-99.99,,,-99.99,,2013-04-21 07:21:00,
2013-04-21 02:31:00,36.0,30.0,30.09,ESE,120,7.0,-999.0,80,-99.99,,,-99.99,,2013-04-21 07:31:00,
2013-04-21 02:42:00,36.0,30.0,30.09,ESE,120,7.0,-999.0,80,-99.99,,,-99.99,,2013-04-21 07:42:00,
2013-04-21 02:52:00,36.0,30.0,30.09,ESE,120,7.0,-999.0,80,-99.99,,,-99.99,,2013-04-21 07:52:00,
2013-04-21 03:01:00,36.0,30.0,30.09,ESE,120,7.0,-999.0,80,-99.99,,,-99.99,,2013-04-21 08:01:00,
2013-04-21 03:12:00,36.0,32.0,30.08,ESE,120,8.0,-999.0,86,-99.99,,,-99.99,,2013-04-21 08:12:00,
2013-04-21 03:21:00,36.0,32.0,30.08,ESE,120,8.0,-999.0,86,-99.99,,,-99.99,,2013-04-21 08:21:00,
2013-04-21 03:32:00,36.0,32.0,30.08,ESE,110,8.0,-999.0,86,-99.99,,,-99.99,,2013-04-21 08:32:00,
2013-04-21 03:41:00,36.0,32.0,30.08,ESE,110,8.0,-999.0,86,-99.99,,,-99.99,,2013-04-21 08:41:00,
2013-04-21 03:52:00,36.0,32.0,30.07,ESE,120,7.0,-999.0,86,-99.99,,,-99.99,,2013-04-21 08:52:00,
2013-04-21 04:01:00,36.0,32.0,30.07,ESE,120,7.0,-999.0,86,-99.99,,,-99.99,,2013-04-21 09:01:00,
2013-04-21 04:11:00,36.0,30.0,30.07,ESE,120,7.0,-999.0,80,-99.99,,,-99.99,,2013-04-21 09:11:00,
2013-04-21 04:21:00,36.0,30.0,30.07,ESE,120,7.0,-999.0,80,-99.99,,,-99.99,,2013-04-21 09:21:00,
2013-04-21 04:32:00,36.0,30.0,30.07,ESE,120,7.0,-999.0,80,-99.99,,,-99.99,,2013-04-21 09:32:00,
2013-04-21 04:43:00,36.0,30.0,30.07,ESE,120,7.0,-999.0,80,-99.99,,,-99.99,,2013-04-21 09:43:00,
2013-04-21 04:52:00,36.0,30.0,30.07,ESE,120,7.0,-999.0,80,-99.99,,,-99.99,,2013-04-21 09:52:00,
2013-04-21 05:03:00,36.0,30.0,30.07,ESE,120,7.0,-999.0,80,-99.99,,,-99.99,,2013-04-21 10:03:00,
2013-04-21 05:12:00,36.0,30.0,30.06,ESE,120,7.0,-999.0,80,-99.99,,,-99.99,,2013-04-21 10:12:00,
2013-04-21 05:22:00,36.0,30.0,30.06,ESE,120,7.0,-999.0,80,-99.99,,,-99.99,,2013-04-21 10:22:00,
2013-04-21 05:32:00,34.0,30.0,30.06,ESE,120,6.0,-999.0,86,-99.99,,,-99.99,,2013-04-21 10:32:00,
2013-04-21 05:42:00,34.0,30.0,30.06,ESE,120,6.0,-999.0,86,-99.99,,,-99.99,,2013-04-21 10:42:00,
2013-04-21 05:52:00,34.0,30.0,30.06,ESE,120,6.0,-999.0,86,-99.99,,,-99.99,,2013-04-21 10:52:00,
2013-04-21 06:02:00,34.0,30.0,30.06,ESE,120,6.0,-999.0,86,-99.99,,,-99.99,,2013-04-21 11:02:00,
2013-04-21 06:12:00,34.0,30.0,30.06,ESE,120,6.0,-999.0,86,-99.99,,,-99.99,,2013-04-21 11:12:00,
2013-04-21 06:22:00,34.0,30.0,30.06,ESE,120,6.0,-999.0,86,-99.99,,,-99.99,,2013-04-21 11:22:00,
2013-04-21 06:34:00,34.0,30.0,30.05,ESE,120,6.0,-999.0,86,-99.99,,,-99.99,,2013-04-21 11:34:00,
2013-04-21 06:42:00,34.0,30.0,30.05,ESE,120,6.0,-999.0,86,-99.99,,,-99.99,,2013-04-21 11:42:00,
2013-04-21 06:52:00,34.0,30.0,30.05,ESE,110,6.0,-999.0,86,-99.99,,,-99.99,,2013-04-21 11:52:00,
2013-04-21 07:02:00,34.0,30.0,30.05,ESE,110,6.0,-999.0,86,-99.99,,,-99.99,,2013-04-21 12:02:00,
2013-04-21 07:12:00,34.0,30.0,30.05,ESE,120,7.0,-999.0,86,-99.99,,,-99.99,,2013-04-21 12:12:00,
2013-04-21 07:22:00,34.0,30.0,30.05,ESE,120,7.0,-999.0,86,-99.99,,,-99.99,,2013-04-21 12:22:00,
2013-04-21 07:32:00,36.0,32.0,30.04,ESE,110,8.0,-999.0,86,-99.99,,,-99.99,,2013-04-21 12:32:00,
2013-04-21 07:42:00,36.0,32.0,30.04,ESE,110,8.0,-999.0,86,-99.99,,,-99.99,,2013-04-21 12:42:00,
2013-04-21 07:52:00,36.0,32.0,30.04,ESE,120,9.0,-999.0,86,-99.99,,,-99.99,,2013-04-21 12:52:00,
2013-04-21 08:01:00,36.0,32.0,30.04,ESE,120,9.0,-999.0,86,-99.99,,,-99.99,,2013-04-21 13:01:00,
2013-04-21 08:12:00,36.0,34.0,30.04,ESE,120,8.0,-999.0,93,-99.99,,,-99.99,,2013-04-21 13:12:00,
2013-04-21 08:21:00,36.0,34.0,30.04,ESE,120,8.0,-999.0,93,-99.99,,,-99.99,,2013-04-21 13:21:00,
2013-04-21 08:32:00,37.0,34.0,30.05,ESE,120,8.0,-999.0,86,-99.99,,,-99.99,,2013-04-21 13:32:00,
2013-04-21 08:42:00,37.0,34.0,30.05,ESE,120,8.0,-999.0,86,-99.99,,,-99.99,,2013-04-21 13:42:00,
2013-04-21 08:52:00,39.0,36.0,30.04,ESE,120,9.0,-999.0,86,-99.99,,,-99.99,,2013-04-21 13:52:00,
2013-04-21 09:02:00,39.0,36.0,30.04,ESE,120,9.0,-999.0,86,-99.99,,,-99.99,,2013-04-21 14:02:00,
2013-04-21 09:11:00,39.0,37.0,30.04,SE,140,12.0,17.0,93,-99.99,,,-99.99,,2013-04-21 14:11:00,
2013-04-21 09:21:00,39.0,37.0,30.04,SE,140,12.0,17.0,93,-99.99,,,-99.99,,2013-04-21 14:21:00,
2013-04-21 09:32:00,41.0,36.0,30.03,SE,140,16.0,24.0,80,-99.99,,,-99.99,,2013-04-21 14:32:00,
2013-04-21 09:42:00,41.0,36.0,30.03,SE,140,16.0,24.0,80,-99.99,,,-99.99,,2013-04-21 14:42:00,
2013-04-21 09:52:00,43.0,37.0,30.02,SE,140,16.0,22.0,81,-99.99,,,-99.99,,2013-04-21 14:52:00,
2013-04-21 10:02:00,43.0,37.0,30.02,SE,140,16.0,22.0,81,-99.99,,,-99.99,,2013-04-21 15:02:00,
2013-04-21 10:11:00,45.0,39.0,30.02,SSE,160,15.0,22.0,81,-99.99,,,-99.99,,2013-04-21 15:11:00,
2013-04-21 10:22:00,45.0,39.0,30.02,SSE,160,15.0,22.0,81,-99.99,,,-99.99,,2013-04-21 15:22:00,
2013-04-21 10:33:00,46.0,41.0,30.02,South,170,14.0,24.0,81,-99.99,,,-99.99,,2013-04-21 15:33:00,
2013-04-21 10:43:00,46.0,41.0,30.02,South,170,14.0,24.0,81,-99.99,,,-99.99,,2013-04-21 15:43:00,
2013-04-21 10:53:00,46.0,41.0,30.01,South,190,12.0,23.0,81,-99.99,,,-99.99,,2013-04-21 15:53:00,
2013-04-21 11:03:00,46.0,41.0,30.01,South,190,12.0,23.0,81,-99.99,,,-99.99,,2013-04-21 16:03:00,
2013-04-21 11:12:00,46.0,41.0,30.01,South,180,10.0,24.0,81,-99.99,,,-99.99,,2013-04-21 16:12:00,
2013-04-21 11:23:00,46.0,41.0,30.01,South,180,10.0,24.0,81,-99.99,,,-99.99,,2013-04-21 16:23:00,
2013-04-21 11:33:00,48.0,43.0,30.00,South,180,14.0,22.0,81,-99.99,,,-99.99,,2013-04-21 16:33:00,
2013-04-21 11:42:00,48.0,43.0,30.00,South,180,14.0,22.0,81,-99.99,,,-99.99,,2013-04-21 16:42:00,
2013-04-21 11:52:00,50.0,43.0,30.00,SSW,210,8.0,-999.0,76,-99.99,,,-99.99,,2013-04-21 16:52:00,
2013-04-21 12:02:00,50.0,43.0,30.00,SSW,210,8.0,-999.0,76,-99.99,,,-99.99,,2013-04-21 17:02:00,
2013-04-21 12:12:00,52.0,43.0,30.00,South,190,9.0,-999.0,71,-99.99,,,-99.99,,2013-04-21 17:12:00,
2013-04-21 12:23:00,52.0,43.0,30.00,South,190,9.0,-999.0,71,-99.99,,,-99.99,,2013-04-21 17:23:00,
2013-04-21 12:32:00,50.0,43.0,30.00,SW,230,9.0,-999.0,76,-99.99,,,-99.99,,2013-04-21 17:32:00,
2013-04-21 12:42:00,50.0,43.0,30.00,SW,230,9.0,-999.0,76,-99.99,,,-99.99,,2013-04-21 17:42:00,
2013-04-21 12:52:00,48.0,43.0,30.01,SW,230,14.0,18.0,81,-99.99,,,-99.99,,2013-04-21 17:52:00,
2013-04-21 13:02:00,48.0,43.0,30.01,SW,230,14.0,18.0,81,-99.99,,,-99.99,,2013-04-21 18:02:00,
2013-04-21 13:11:00,48.0,45.0,30.00,SW,220,7.0,-999.0,87,-99.99,,,-99.99,,2013-04-21 18:11:00,
2013-04-21 13:22:00,48.0,45.0,30.00,SW,220,7.0,-999.0,87,-99.99,,,-99.99,,2013-04-21 18:22:00,
2013-04-21 13:32:00,48.0,45.0,30.00,WSW,240,9.0,-999.0,87,-99.99,,,-99.99,,2013-04-21 18:32:00,
2013-04-21 13:42:00,48.0,45.0,30.00,WSW,240,9.0,-999.0,87,-99.99,,,-99.99,,2013-04-21 18:42:00,
2013-04-21 13:52:00,48.0,43.0,30.00,SW,220,9.0,-999.0,81,-99.99,,,-99.99,,2013-04-21 18:52:00,
2013-04-21 14:02:00,48.0,43.0,30.00,SW,220,9.0,-999.0,81,-99.99,,,-99.99,,2013-04-21 19:02:00,
2013-04-21 14:12:00,50.0,43.0,30.00,WSW,240,12.0,-999.0,76,-99.99,,,-99.99,,2013-04-21 19:12:00,
2013-04-21 14:21:00,50.0,43.0,30.00,WSW,240,12.0,-999.0,76,-99.99,,,-99.99,,2013-04-21 19:21:00,
2013-04-21 14:32:00,50.0,45.0,30.00,WSW,240,7.0,-999.0,81,-99.99,,,-99.99,,2013-04-21 19:32:00,
2013-04-21 14:42:00,50.0,45.0,30.00,WSW,240,7.0,-999.0,81,-99.99,,,-99.99,,2013-04-21 19:42:00,
2013-04-21 14:52:00,48.0,45.0,30.01,WSW,240,8.0,-999.0,87,-99.99,,,-99.99,,2013-04-21 19:52:00,
2013-04-21 15:02:00,48.0,45.0,30.01,WSW,240,8.0,-999.0,87,-99.99,,,-99.99,,2013-04-21 20:02:00,
2013-04-21 15:11:00,48.0,45.0,30.01,West,260,9.0,-999.0,87,-99.99,,,-99.99,,2013-04-21 20:11:00,
2013-04-21 15:22:00,48.0,45.0,30.01,West,260,9.0,-999.0,87,-99.99,,,-99.99,,2013-04-21 20:22:00,
2013-04-21 15:32:00,46.0,45.0,30.02,West,260,7.0,-999.0,93,-99.99,,,-99.99,,2013-04-21 20:32:00,
2013-04-21 15:42:00,46.0,45.0,30.02,West,260,7.0,-999.0,93,-99.99,,,-99.99,,2013-04-21 20:42:00,
2013-04-21 15:52:00,46.0,45.0,30.02,West,260,6.0,-999.0,93,-99.99,,,-99.99,,2013-04-21 20:52:00,
2013-04-21 16:02:00,46.0,45.0,30.02,West,260,6.0,-999.0,93,-99.99,,,-99.99,,2013-04-21 21:02:00,
2013-04-21 16:12:00,46.0,46.0,30.02,West,260,10.0,16.0,100,-99.99,,,-99.99,,2013-04-21 21:12:00,
2013-04-21 16:21:00,46.0,46.0,30.02,West,260,10.0,16.0,100,-99.99,,,-99.99,,2013-04-21 21:21:00,
2013-04-21 16:33:00,48.0,48.0,30.02,West,270,14.0,20.0,100,-99.99,,,-99.99,,2013-04-21 21:33:00,
2013-04-21 16:43:00,48.0,48.0,30.02,West,270,14.0,20.0,100,-99.99,,,-99.99,,2013-04-21 21:43:00,
2013-04-21 16:53:00,48.0,46.0,30.02,West,270,14.0,18.0,93,-99.99,,,-99.99,,2013-04-21 21:53:00,
2013-04-21 17:02:00,48.0,46.0,30.02,West,270,14.0,18.0,93,-99.99,,,-99.99,,2013-04-21 22:02:00,
2013-04-21 17:12:00,48.0,48.0,30.03,West,270,15.0,-999.0,100,-99.99,,,-99.99,,2013-04-21 22:12:00,
2013-04-21 17:22:00,48.0,48.0,30.03,West,270,15.0,-999.0,100,-99.99,,,-99.99,,2013-04-21 22:22:00,
2013-04-21 17:33:00,48.0,46.0,30.03,West,270,10.0,15.0,93,-99.99,,,-99.99,,2013-04-21 22:33:00,
2013-04-21 17:43:00,48.0,46.0,30.03,West,270,10.0,15.0,93,-99.99,,,-99.99,,2013-04-21 22:43:00,
2013-04-21 17:52:00,48.0,46.0,30.04,West,270,13.0,17.0,93,-99.99,,,-99.99,,2013-04-21 22:52:00,
2013-04-21 18:02:00,48.0,46.0,30.04,West,270,13.0,17.0,93,-99.99,,,-99.99,,2013-04-21 23:02:00,
2013-04-21 18:12:00,45.0,43.0,30.05,NW,320,14.0,20.0,93,-99.99,,,-99.99,,2013-04-21 23:12:00,
2013-04-21 18:22:00,45.0,43.0,30.05,NW,320,14.0,20.0,93,-99.99,,,-99.99,,2013-04-21 23:22:00,
2013-04-21 18:32:00,45.0,43.0,30.06,NNW,330,13.0,22.0,93,-99.99,,,-99.99,,2013-04-21 23:32:00,
2013-04-21 18:42:00,45.0,43.0,30.06,NNW,330,13.0,22.0,93,-99.99,,,-99.99,,2013-04-21 23:42:00,
2013-04-21 18:52:00,45.0,43.0,30.07,NNW,330,16.0,23.0,93,-99.99,,,-99.99,,2013-04-21 23:52:00,
2013-04-21 19:01:00,45.0,43.0,30.07,NNW,330,16.0,23.0,93,-99.99,,,-99.99,,2013-04-22 00:01:00,
2013-04-21 19:11:00,45.0,43.0,30.07,NNW,330,16.0,23.0,93,-99.99,,,-99.99,,2013-04-22 00:11:00,
2013-04-21 19:22:00,45.0,43.0,30.07,NNW,330,16.0,23.0,93,-99.99,,,-99.99,,2013-04-22 00:22:00,
2013-04-21 19:32:00,43.0,39.0,30.09,NW,320,10.0,16.0,86,-99.99,,,-99.99,,2013-04-22 00:32:00,
2013-04-21 19:42:00,43.0,39.0,30.09,NW,320,10.0,16.0,86,-99.99,,,-99.99,,2013-04-22 00:42:00,
2013-04-21 19:52:00,43.0,39.0,30.09,NW,320,12.0,17.0,86,-99.99,,,-99.99,,2013-04-22 00:52:00,
2013-04-21 20:01:00,43.0,39.0,30.09,NW,320,12.0,17.0,86,-99.99,,,-99.99,,2013-04-22 01:01:00,
2013-04-21 20:12:00,43.0,39.0,30.09,NW,320,12.0,17.0,86,-99.99,,,-99.99,,2013-04-22 01:12:00,
2013-04-21 20:21:00,43.0,39.0,30.09,NW,320,12.0,17.0,86,-99.99,,,-99.99,,2013-04-22 01:21:00,
2013-04-21 20:32:00,41.0,39.0,30.11,NW,320,10.0,17.0,93,-99.99,,,-99.99,,2013-04-22 01:32:00,
2013-04-21 20:42:00,41.0,39.0,30.11,NW,320,10.0,17.0,93,-99.99,,,-99.99,,2013-04-22 01:42:00,
2013-04-21 20:52:00,41.0,39.0,30.11,NNW,340,14.0,-999.0,93,-99.99,,,-99.99,,2013-04-22 01:52:00,
2013-04-21 21:02:00,41.0,39.0,30.11,NNW,340,14.0,-999.0,93,-99.99,,,-99.99,,2013-04-22 02:02:00,
2013-04-21 21:11:00,39.0,37.0,30.11,NNW,330,13.0,21.0,93,-99.99,,,-99.99,,2013-04-22 02:11:00,
2013-04-21 21:21:00,39.0,37.0,30.11,NNW,330,13.0,21.0,93,-99.99,,,-99.99,,2013-04-22 02:21:00,
2013-04-21 21:32:00,39.0,37.0,30.12,North,350,12.0,-999.0,93,-99.99,,,-99.99,,2013-04-22 02:32:00,
2013-04-21 21:42:00,39.0,37.0,30.12,North,350,12.0,-999.0,93,-99.99,,,-99.99,,2013-04-22 02:42:00,
2013-04-21 21:51:00,39.0,37.0,30.14,NNW,340,14.0,18.0,93,-99.99,,,-99.99,,2013-04-22 02:51:00,
2013-04-21 22:02:00,39.0,37.0,30.14,NNW,340,14.0,18.0,93,-99.99,,,-99.99,,2013-04-22 03:02:00,
2013-04-21 22:11:00,37.0,36.0,30.15,NNW,340,12.0,-999.0,93,-99.99,,,-99.99,,2013-04-22 03:11:00,
2013-04-21 22:22:00,37.0,36.0,30.15,NNW,340,12.0,-999.0,93,-99.99,,,-99.99,,2013-04-22 03:22:00,
2013-04-21 22:33:00,37.0,36.0,30.15,North,350,13.0,-999.0,93,-99.99,,,-99.99,,2013-04-22 03:33:00,
2013-04-21 22:43:00,37.0,36.0,30.15,North,350,13.0,-999.0,93,-99.99,,,-99.99,,2013-04-22 03:43:00,
2013-04-21 22:52:00,37.0,36.0,30.15,NNW,340,14.0,20.0,93,-99.99,,,-99.99,,2013-04-22 03:52:00,
2013-04-21 23:03:00,37.0,36.0,30.15,NNW,340,14.0,20.0,93,-99.99,,,-99.99,,2013-04-22 04:03:00,
2013-04-21 23:12:00,36.0,34.0,30.14,South,170,17.0,23.0,93,-99.99,,,-99.99,,2013-04-22 04:12:00,
2013-04-21 23:23:00,36.0,34.0,30.14,South,170,17.0,23.0,93,-99.99,,,-99.99,,2013-04-22 04:23:00,
2013-04-21 23:33:00,36.0,34.0,30.14,North,10,10.0,22.0,93,-99.99,,,-99.99,,2013-04-22 04:33:00,
2013-04-21 23:43:00,36.0,34.0,30.14,North,10,10.0,22.0,93,-99.99,,,-99.99,,2013-04-22 04:43:00,
2013-04-21 23:52:00,36.0,34.0,30.15,NNE,20,13.0,17.0,93,-99.99,,,-99.99,,2013-04-22 04:52:00,